Weather History for KSSF - July, 2013

Change the Weather History Date:

Tuesday, July 16, 2013

  Actual Average Record
Temperature  
Mean Temperature 81 °F -  
Max Temperature 90 °F 93 °F 102 °F (1998)
Min Temperature 75 °F 71 °F 71 °F (2004)
Cooling Degree Days 16    
Growing Degree Days 31 (Base 50)    
Moisture  
Dew Point 73 °F    
Average Humidity 83    
Maximum Humidity 94    
Minimum Humidity 59    
Precipitation  
Precipitation 0.25 in - - ()
Sea Level Pressure  
Sea Level Pressure 30.02 in    
Wind  
Wind Speed 7 mph (ENE)    
Max Wind Speed 17 mph    
Max Gust Speed 22 mph    
Visibility 9 miles    
Events Rain    
Averages and records for this station are not official NWS values.
T = Trace of Precipitation, MM = Missing Value Source: NWS Daily Summary

Daily Weather History Graph

Daily Weather History Graph

Search for Another Location

Airport or City:

Trip Planner

Search our weather history database for the weather conditions in past years. The results will help you decide how hot, cold, wet, or windy it might be!

Date:

Astronomy

Jul. 16, 2013 Rise Set
Actual Time 6:45 AM CDT 8:34 PM CDT
Civil Twilight 6:18 AM CDT 9:01 PM CDT
Nautical Twilight 5:46 AM CDT 9:33 PM CDT
Astronomical Twilight 5:12 AM CDT 10:06 PM CDT
Moon 2:28 PM CDT (7/16) 1:02 AM CDT (7/16)
Length of Visible Light 14h 42m
Length of Day
13h 49m
First Quarter, 56% of the Moon is Illuminated
Jul 16
First Quarter
Jul 22
Full
Jul 29
Last Quarter
Aug 6
New
Aug 14
First Quarter

Hourly Weather History & Observations

Time (CDT) Temp. Heat Index Dew Point Humidity Pressure Visibility Wind Dir Wind Speed Gust Speed Precip Events Conditions
12:53 AM 75.9 °F - 72.0 °F 87% 29.97 in 10.0 mi ENE 5.8 mph - N/A   Partly Cloudy
1:25 AM 75.2 °F - 71.6 °F 89% 30.01 in 10.0 mi ENE 4.6 mph - N/A   Mostly Cloudy
1:34 AM 75.2 °F - 71.6 °F 89% 30.01 in 10.0 mi ENE 4.6 mph - N/A   Scattered Clouds
1:53 AM 75.9 °F - 72.0 °F 87% 29.97 in 10.0 mi NE 4.6 mph - N/A   Partly Cloudy
2:53 AM 75.9 °F - 73.0 °F 91% 29.96 in 10.0 mi ENE 5.8 mph - N/A   Partly Cloudy
3:50 AM 75.2 °F - 73.4 °F 94% 29.99 in 10.0 mi ENE 4.6 mph - N/A   Mostly Cloudy
3:51 AM 75.9 °F - 73.0 °F 91% 29.96 in 10.0 mi ENE 5.8 mph - N/A   Mostly Cloudy
4:03 AM 75.2 °F - 73.4 °F 94% 29.99 in 10.0 mi ENE 4.6 mph - N/A   Scattered Clouds
4:11 AM 75.2 °F - 73.4 °F 94% 29.99 in 10.0 mi NE 3.5 mph - N/A   Mostly Cloudy
4:46 AM 75.2 °F - 73.4 °F 94% 29.99 in 10.0 mi ENE 3.5 mph - N/A   Mostly Cloudy
4:53 AM 75.9 °F - 73.0 °F 91% 29.96 in 10.0 mi ENE 3.5 mph - N/A   Overcast
5:38 AM 75.2 °F - 71.6 °F 89% 29.99 in 10.0 mi ENE 5.8 mph - N/A   Scattered Clouds
5:53 AM 75.0 °F - 72.0 °F 90% 29.97 in 10.0 mi NE 4.6 mph - N/A   Clear
6:53 AM 75.0 °F - 72.0 °F 90% 29.99 in 10.0 mi NE 6.9 mph - N/A   Partly Cloudy
7:12 AM 75.2 °F - 71.6 °F 89% 30.02 in 10.0 mi ENE 6.9 mph - N/A   Scattered Clouds
7:23 AM 75.2 °F - 71.6 °F 89% 30.03 in 10.0 mi NE 6.9 mph - N/A   Mostly Cloudy
7:30 AM 75.2 °F - 71.6 °F 89% 30.03 in 10.0 mi NE 6.9 mph - N/A   Overcast
7:53 AM 75.0 °F - 72.0 °F 90% 30.00 in 10.0 mi ENE 4.6 mph - N/A   Overcast
8:03 AM 75.2 °F - 73.4 °F 94% 30.03 in 4.0 mi ENE 6.9 mph - 0.01 in Rain Light Rain
8:16 AM 75.2 °F - 73.4 °F 94% 30.04 in 6.0 mi ENE 5.8 mph - 0.01 in Rain Light Rain
8:24 AM 75.2 °F - 73.4 °F 94% 30.04 in 9.0 mi Variable 6.9 mph - 0.01 in Rain Light Rain
8:38 AM 75.2 °F - 73.4 °F 94% 30.05 in 1.8 mi East 5.8 mph - 0.03 in Rain Rain
8:46 AM 75.2 °F - 73.4 °F 94% 30.05 in 2.0 mi ENE 9.2 mph - 0.05 in Rain Light Rain
8:53 AM 75.9 °F - 73.9 °F 94% 30.02 in 7.0 mi ENE 9.2 mph - 0.05 in Rain Light Rain
9:17 AM 78.8 °F - 75.2 °F 89% 30.05 in 8.0 mi East 9.2 mph - 0.00 in   Overcast
9:24 AM 78.8 °F - 75.2 °F 89% 30.05 in 8.0 mi ENE 10.4 mph - 0.00 in   Overcast
9:40 AM 78.8 °F - 75.2 °F 89% 30.05 in 9.0 mi East 10.4 mph - 0.00 in   Overcast
9:53 AM 79.0 °F - 75.0 °F 88% 30.02 in 10.0 mi ESE 8.1 mph - 0.00 in   Overcast
10:18 AM 82.4 °F 89.5 °F 75.2 °F 79% 30.05 in 10.0 mi East 12.7 mph - N/A   Mostly Cloudy
10:25 AM 80.6 °F 85.4 °F 73.4 °F 79% 30.05 in 10.0 mi East 10.4 mph - N/A   Mostly Cloudy
10:32 AM 82.4 °F 89.5 °F 75.2 °F 79% 30.05 in 10.0 mi East 8.1 mph - N/A   Mostly Cloudy
10:44 AM 84.2 °F 90.9 °F 73.4 °F 70% 30.05 in 10.0 mi East 10.4 mph - N/A   Mostly Cloudy
10:53 AM 82.0 °F 87.4 °F 73.0 °F 74% 30.03 in 10.0 mi ENE 8.1 mph - N/A   Mostly Cloudy
11:24 AM 84.2 °F 89.6 °F 71.6 °F 66% 30.06 in 10.0 mi East 9.2 mph - N/A   Mostly Cloudy
11:53 AM 87.1 °F 93.6 °F 72.0 °F 61% 30.02 in 10.0 mi East 8.1 mph 18.4 mph N/A   Scattered Clouds
12:53 PM 87.1 °F 92.8 °F 71.1 °F 59% 30.01 in 10.0 mi ENE 8.1 mph - N/A   Mostly Cloudy
1:53 PM 86.0 °F 91.5 °F 71.1 °F 61% 30.02 in 10.0 mi ESE 15.0 mph - 0.03 in   Mostly Cloudy
2:08 PM 80.6 °F 84.6 °F 71.6 °F 74% 30.05 in 10.0 mi ENE 10.4 mph 19.6 mph N/A   Mostly Cloudy
2:26 PM 80.6 °F 84.6 °F 71.6 °F 74% 30.05 in 1.8 mi ESE 13.8 mph 19.6 mph 0.01 in Rain Heavy Rain
2:41 PM 78.8 °F - 71.6 °F 78% 30.04 in 3.0 mi ESE 5.8 mph - 0.06 in Rain Light Rain
2:53 PM 79.0 °F - 73.0 °F 82% 30.01 in 10.0 mi ENE 6.9 mph - 0.10 in   Overcast
3:53 PM 81.0 °F 86.2 °F 73.9 °F 79% 30.00 in 10.0 mi NNE 10.4 mph - 0.07 in   Partly Cloudy
4:53 PM 82.9 °F 88.0 °F 72.0 °F 69% 30.00 in 10.0 mi ENE 15.0 mph - N/A   Clear
5:53 PM 84.0 °F 89.0 °F 71.1 °F 65% 29.99 in 10.0 mi ESE 17.3 mph 21.9 mph N/A   Partly Cloudy
6:53 PM 84.0 °F 88.4 °F 70.0 °F 63% 29.98 in 10.0 mi East 10.4 mph - N/A   Clear
7:53 PM 82.0 °F 86.3 °F 71.1 °F 69% 30.01 in 10.0 mi East 11.5 mph - N/A   Partly Cloudy
8:53 PM 80.1 °F 83.6 °F 71.1 °F 74% 30.03 in 10.0 mi East 8.1 mph - N/A   Clear
9:53 PM 79.0 °F - 71.1 °F 77% 30.04 in 10.0 mi East 6.9 mph - N/A   Partly Cloudy
10:53 PM 79.0 °F - 72.0 °F 79% 30.06 in 10.0 mi East 5.8 mph - N/A   Overcast
11:53 PM 78.1 °F - 72.0 °F 81% 30.06 in 10.0 mi East 5.8 mph - N/A   Partly Cloudy